Skip to main content Skip to accessibility
This website is not compatible with your web browser. You should install a newer browser. If you live in Jersey and need help upgrading call the States of Jersey web team on 440099.
Homegov.je

Information and public services for the Island of Jersey

L'înformâtion et les sèrvices publyis pouor I'Île dé Jèrri

  • Choose the service you want to log in to:

  • gov.je

    Update your notification preferences

  • one.gov.je

    Access government services

  • CAESAR

    Clear goods through customs or claim relief

  • Talentlink

    View or update your States of Jersey job application

CI Airfield TAFs

JERSEY - EGJJ

EGJJ 250459Z 2506/2515 27011KT 3000 RA BR BKN001 PROB40 TEMPO 2506/2513 0300 +RA FG BKN000 BECMG 2513/2515 8000 NSW SCT005 BKN012=

GUERNSEY - EGJB

EGJB 250459Z 2506/2515 27011KT 2000 RA BR BKN001 PROB40 TEMPO 2506/2511 0300 +RA FG BKN000 BECMG 2512/2514 8000 NSW SCT005 BKN012=

ALDERNEY - EGJA

EGJA 241815Z 2418/2500 CNL=

​Apologies to the disruption to normal service. Commercial Aviation Services are available from the Jersey Met Forecaster 01534 448765.

Back to top
rating button